Location: İstanbul
(41.0082°N, 28.9784°E)
Time: 07:32:49
(UTC+03:00)

DOVE 4 - Pass Details

Date: 28 April 2024
Orbit: 582 x 778 km, 97.7° (Epoch: 27 May)

Event Time Altitude Azimuth Distance (km) Brightness Sun altitude
Rises 23:43:38 0° 358° (N) 2,941 ? -31.6°
Reaches altitude 10° 23:46:09 10° 343° (NNW) 2,060 ? -31.8°
Maximum altitude 23:49:39 23° 292° (WNW) 1,426 ? -32.0°
Enters shadow 23:49:51 23° 288° (WNW) 1,431 ? -32.1°
